EW9733 Weather Reports


time (UTC)temp
F
wind
direction
speed
knots
gust
knots
rain 1hr
in
rain 24hr
in
rain mn
in
humidity
%
barometer
mb
20260507074548 55 337 0.0 6.1 0.01 0.07 0.01 90 1005.6
20260507073040 56 348 0.0 2.6 0.00 0.06 0.00 91 1004.6
20260507071539 56 262 0.0 3.5 0.00 0.06 0.00 92 1004.5
20260507070037 56 268 0.0 2.6 0.00 0.06 0.00 92 1004.6
20260507064537 57 264 0.0 0.9 0.00 0.06 0.00 93 1004.6
20260507063038 58 264 0.0 2.6 0.00 0.06 0.00 93 1004.6
20260507061536 58 264 0.0 0.9 0.00 0.06 0.00 93 1004.7
20260507060037 58 223 0.0 1.7 0.00 0.06 0.00 93 1005.1
20260507054530 58 220 0.0 1.7 0.00 0.06 0.00 93 1004.9
20260507053029 58 221 0.0 1.7 0.00 0.06 0.00 93 1005.0
20260507051528 57 242 0.9 2.6 0.00 0.06 0.00 93 1005.0
20260507050029 57 190 0.0 4.3 0.00 0.06 0.00 93 1005.4
20260507044525 57 238 0.0 2.6 0.00 0.06 0.00 93 1005.2
20260507043027 57 215 0.0 3.5 0.00 0.06 0.00 93 1004.9
20260507041522 57 267 0.0 3.5 0.00 0.06 0.00 93 1005.1
20260507040019 57 227 0.0 4.3 0.00 0.06 0.00 93 1005.2
20260507034523 57 175 0.0 4.3 0.00 0.06 0.06 93 1005.6
20260507033018 57 178 1.7 5.2 0.00 0.06 0.06 93 1005.3
20260507031519 57 182 0.9 6.1 0.00 0.06 0.06 93 1005.0
20260507030016 57 186 2.6 6.1 0.00 0.06 0.06 93 1005.0
20260507024519 57 211 0.9 3.5 0.00 0.06 0.06 93 1005.0
20260507023015 57 179 1.7 7.0 0.00 0.06 0.06 93 1004.7
20260507021514 57 196 0.9 5.2 0.00 0.06 0.06 93 1004.9
20260507020018 57 198 0.9 8.7 0.00 0.06 0.06 93 1005.0
20260507014511 57 146 2.6 7.0 0.00 0.06 0.06 93 1005.3
20260507013009 57 188 2.6 7.8 0.00 0.06 0.06 93 1005.4
20260507011512 57 240 0.9 7.8 0.00 0.06 0.06 92 1005.6
20260507010010 57 185 1.7 11.3 0.00 0.06 0.06 92 1005.4
20260507004509 57 219 4.3 7.0 0.01 0.06 0.06 92 1005.5
20260507003006 57 164 1.7 9.6 0.03 0.06 0.06 92 1005.6
20260507001514 57 178 2.6 9.6 0.03 0.06 0.06 92 1005.6
20260507000008 57 156 1.7 17.4 0.03 0.06 0.06 92 1005.5
20260506234502 57 203 1.7 8.7 0.02 0.05 0.05 91 1005.3
20260506233102 57 215 5.2 14.8 0.01 0.03 0.03 91 1005.3
20260506231606 57 186 1.7 7.8 0.02 0.03 0.03 91 1005.6
20260506230112 58 164 0.9 7.8 0.02 0.03 0.03 90 1005.6
20260506224555 58 207 2.6 10.4 0.02 0.03 0.03 90 1005.4
20260506223052 58 191 4.3 13.0 0.01 0.02 0.02 89 1005.8
20260506221604 59 239 3.5 9.6 0.00 0.01 0.01 88 1005.9
20260506220050 59 146 3.5 14.8 0.00 0.01 0.01 88 1006.1
20260506214554 59 204 2.6 14.8 0.00 0.01 0.01 88 1006.0
20260506213048 59 192 3.5 10.4 0.00 0.01 0.01 87 1006.0
20260506211546 59 140 3.5 13.9 0.00 0.01 0.01 87 1006.2
20260506210054 60 217 4.3 12.2 0.01 0.01 0.01 86 1006.3
20260506204547 60 144 2.6 15.6 0.01 0.01 0.01 86 1006.4
20260506203042 60 176 3.5 7.8 0.01 0.01 0.01 85 1006.4
20260506201541 61 197 0.9 12.2 0.01 0.01 0.01 84 1006.5
20260506200040 62 202 2.6 7.0 0.00 0.00 0.00 81 1006.5
20260506194540 62 140 3.5 7.0 0.00 0.00 0.00 79 1006.8
20260506193044 63 229 4.3 13.9 0.00 0.00 0.00 75 1006.7
20260506191539 64 202 6.1 18.2 0.00 0.00 0.00 74 1006.8
20260506190039 64 217 6.1 16.5 0.00 0.00 0.00 73 1006.5
20260506184543 64 221 5.2 15.6 0.00 0.00 0.00 72 1006.8
20260506183036 65 208 6.1 11.3 0.00 0.00 0.00 71 1006.8
20260506181540 66 189 6.1 19.1 0.00 0.00 0.00 71 1006.9
20260506180034 66 197 6.1 16.5 0.00 0.00 0.00 69 1007.5
20260506174633 67 192 4.3 20.9 0.00 0.00 0.00 69 1007.6
20260506173031 68 203 6.1 14.8 0.00 0.00 0.00 67 1007.8
20260506171534 67 296 3.5 20.0 0.00 0.00 0.00 69 1007.4
20260506170030 67 180 5.2 11.3 0.00 0.00 0.00 67 1007.8
20260506164543 68 186 2.6 10.4 0.00 0.00 0.00 68 1007.8
20260506163025 67 192 3.5 18.2 0.00 0.00 0.00 68 1008.0
20260506161524 68 161 4.3 17.4 0.00 0.00 0.00 67 1008.4
20260506160023 68 157 4.3 12.2 0.00 0.00 0.00 67 1008.5
20260506154521 68 186 4.3 18.2 0.00 0.00 0.00 67 1008.7
20260506153021 68 219 1.7 11.3 0.00 0.00 0.00 67 1009.0
20260506151520 68 175 4.3 11.3 0.00 0.00 0.00 67 1009.0
20260506150017 69 207 3.5 13.9 0.00 0.00 0.00 67 1009.0
20260506144523 68 217 4.3 17.4 0.00 0.00 0.00 66 1008.8
20260506143012 68 214 5.2 13.9 0.00 0.00 0.00 68 1008.7
20260506141522 67 204 5.2 9.6 0.00 0.00 0.00 68 1008.7
20260506140005 67 207 4.3 10.4 0.00 0.00 0.00 69 1008.9
20260506134500 66 188 3.5 13.9 0.00 0.00 0.00 71 1009.4
20260506133109 65 174 5.2 13.9 0.00 0.00 0.00 74 1009.6
20260506131614 64 209 3.5 13.0 0.00 0.00 0.00 76 1009.5
20260506130049 62 191 3.5 14.8 0.00 0.00 0.00 78 1009.7
20260506124546 61 216 4.3 16.5 0.00 0.00 0.00 80 1009.4
20260506123044 61 156 4.3 13.9 0.00 0.00 0.00 81 1009.2
20260506121545 60 146 5.2 13.9 0.00 0.00 0.00 82 1009.7
20260506120056 60 200 4.3 13.0 0.00 0.00 0.00 83 1009.8
20260506114537 59 180 2.6 14.8 0.00 0.00 0.00 85 1009.9
20260506113035 59 159 3.5 12.2 0.00 0.00 0.00 85 1009.9
20260506111536 58 219 3.5 8.7 0.00 0.00 0.00 86 1009.9
20260506110034 58 169 4.3 13.9 0.00 0.00 0.00 86 1009.9
20260506104631 58 207 2.6 12.2 0.00 0.00 0.00 86 1010.0
20260506103037 58 203 2.6 7.0 0.00 0.00 0.00 86 1009.9
20260506101521 58 196 3.5 7.8 0.00 0.00 0.00 86 1009.7
20260506100019 58 137 2.6 8.7 0.00 0.00 0.00 86 1009.7
20260506094515 58 176 4.3 13.0 0.00 0.00 0.00 86 1009.7
20260506093019 58 153 3.5 8.7 0.00 0.00 0.00 85 1009.5
20260506091510 58 200 4.3 7.0 0.00 0.00 0.00 85 1009.6
20260506090008 58 203 3.5 12.2 0.00 0.00 0.00 85 1009.6
20260506084509 58 204 1.7 10.4 0.00 0.00 0.00 85 1009.8
20260506083006 58 252 2.6 18.2 0.00 0.00 0.00 84 1009.8
20260506081504 58 205 4.3 13.9 0.00 0.00 0.00 84 1009.7